K3BAK-13 Weather Reports


Display with metric or nautical units.
time (UTC)temp
F
wind
direction
speed
MPH
gust
MPH
rain 1hr
in
rain 24hr
in
rain mn
in
humidity
%
barometer
mb
20260504045059 49 220 0.0 3.0 0.00 0.00 0.00 55 1014.5
20260504044621 49 208 0.0 3.0 0.00 0.00 0.00 55 1014.5
20260504044059 49 227 0.0 4.0 0.00 0.00 0.00 55 1014.6
20260504043559 49 203 1.0 5.0 0.00 0.00 0.00 55 1014.6
20260504043101 49 230 1.0 5.0 0.00 0.00 0.00 56 1014.5
20260504042602 49 198 2.0 5.0 0.00 0.00 0.00 55 1014.5
20260504042058 49 229 2.0 4.0 0.00 0.00 0.00 55 1014.5
20260504041559 48 229 2.0 3.0 0.00 0.00 0.00 56 1014.6
20260504041058 48 217 0.0 3.0 0.00 0.00 0.00 57 1014.6
20260504040558 48 213 1.0 3.0 0.00 0.00 0.00 56 1014.5
20260504040113 48 233 1.0 2.0 0.00 0.00 0.00 56 1014.5
20260504035602 48 158 0.0 2.0 0.00 0.00 0.00 57 1014.5
20260504035059 48 227 0.0 2.0 0.00 0.00 0.00 57 1014.5
20260504034615 48 0 0.0 2.0 0.00 0.00 0.00 57 1014.5
20260504034059 48 247 0.0 2.0 0.00 0.00 0.00 57 1014.6
20260504033602 48 0 0.0 2.0 0.00 0.00 0.00 57 1014.5
20260504033058 48 206 0.0 2.0 0.00 0.00 0.00 57 1014.4
20260504032601 48 210 0.0 1.0 0.00 0.00 0.00 57 1014.4
20260504032059 48 203 0.0 1.0 0.00 0.00 0.00 57 1014.5
20260504031559 48 0 0.0 1.0 0.00 0.00 0.00 58 1014.5
20260504031058 48 0 0.0 1.0 0.00 0.00 0.00 57 1014.5
20260504030647 48 0 0.0 0.0 0.00 0.00 0.00 57 1014.5
20260504030059 49 0 0.0 0.0 0.00 0.00 0.00 57 1014.5
20260504025601 49 0 0.0 0.0 0.00 0.00 0.00 57 1014.5
20260504025058 49 0 0.0 0.0 0.00 0.00 0.00 57 1014.6
20260504024605 49 0 0.0 0.0 0.00 0.00 0.00 56 1014.6
20260504024058 49 0 0.0 0.0 0.00 0.00 0.00 56 1014.7
20260504023601 49 0 0.0 0.0 0.00 0.00 0.00 57 1014.7
20260504023100 50 0 0.0 0.0 0.00 0.00 0.00 55 1014.8
20260504022558 50 0 0.0 0.0 0.00 0.00 0.00 55 1014.7
20260504022100 50 0 0.0 2.0 0.00 0.00 0.00 54 1014.6
20260504021602 50 0 0.0 2.0 0.00 0.00 0.00 54 1014.8
20260504021058 50 233 0.0 2.0 0.00 0.00 0.00 54 1014.9
20260504020559 51 201 0.0 1.0 0.00 0.00 0.00 53 1014.9
20260504020103 51 203 0.0 1.0 0.00 0.00 0.00 54 1014.7
20260504015559 51 0 0.0 0.0 0.00 0.00 0.00 53 1014.8
20260504015059 51 0 0.0 0.0 0.00 0.00 0.00 53 1014.8
20260504014558 51 0 0.0 0.0 0.00 0.00 0.00 54 1014.7
20260504014058 51 0 0.0 0.0 0.00 0.00 0.00 53 1014.7
20260504013558 51 0 0.0 0.0 0.00 0.00 0.00 53 1014.6
20260504013116 51 0 0.0 0.0 0.00 0.00 0.00 53 1014.6
20260504012558 51 0 0.0 0.0 0.00 0.00 0.00 53 1014.6
20260504012058 52 0 0.0 0.0 0.00 0.00 0.00 51 1014.5
20260504011603 52 0 0.0 0.0 0.00 0.00 0.00 51 1014.5
20260504011057 52 0 0.0 0.0 0.00 0.00 0.00 51 1014.6
20260504010558 53 0 0.0 1.0 0.00 0.00 0.00 49 1014.5
20260504010107 53 0 0.0 1.0 0.00 0.00 0.00 49 1014.5
20260504005559 53 0 0.0 2.0 0.00 0.00 0.00 49 1014.5
20260504005059 54 132 0.0 2.0 0.00 0.00 0.00 48 1014.5
20260504004610 54 0 0.0 3.0 0.00 0.00 0.00 47 1014.5
20260504004059 54 222 0.0 4.0 0.00 0.00 0.00 46 1014.4
20260504003558 54 223 2.0 4.0 0.00 0.00 0.00 46 1014.4
20260504003058 55 225 1.0 2.0 0.00 0.00 0.00 45 1014.5
20260504002558 55 211 0.0 2.0 0.00 0.00 0.00 45 1014.5
20260504002058 55 217 1.0 2.0 0.00 0.00 0.00 45 1014.5
20260504001605 55 0 0.0 2.0 0.00 0.00 0.00 45 1014.5
20260504001058 55 241 0.0 6.0 0.00 0.00 0.00 45 1014.4
20260504000559 56 0 0.0 6.0 0.00 0.00 0.00 44 1014.4
20260504000114 56 233 1.0 4.0 0.00 0.00 0.00 44 1014.5
20260503235558 56 20 2.0 4.0 0.00 0.00 0.00 44 1014.4
20260503235101 56 37 1.0 4.0 0.00 0.00 0.00 43 1014.5
20260503234607 56 176 1.0 11.0 0.00 0.00 0.00 42 1014.4
20260503234100 57 248 4.0 11.0 0.00 0.00 0.00 42 1014.6
20260503233558 57 220 3.0 8.0 0.00 0.00 0.00 42 1014.5
20260503233111 57 234 2.0 6.0 0.00 0.00 0.00 41 1014.5
20260503232558 57 219 1.0 7.0 0.00 0.00 0.00 41 1014.5
20260503232058 58 259 2.0 7.0 0.00 0.00 0.00 41 1014.5
20260503231609 58 229 3.0 13.0 0.00 0.00 0.00 41 1014.6
20260503231059 58 286 5.0 13.0 0.00 0.00 0.00 41 1014.6
20260503230558 58 223 3.0 7.0 0.00 0.00 0.00 40 1014.6
20260503230108 59 250 2.0 9.0 0.00 0.00 0.00 40 1014.6
20260503225558 59 219 3.0 9.0 0.00 0.00 0.00 41 1014.6
20260503225058 59 215 3.0 8.0 0.00 0.00 0.00 39 1014.6
20260503224608 59 205 2.0 8.0 0.00 0.00 0.00 39 1014.6
20260503224059 60 197 3.0 7.0 0.00 0.00 0.00 39 1014.8
20260503223559 59 85 1.0 6.0 0.00 0.00 0.00 40 1014.7
20260503223101 59 219 2.0 6.0 0.00 0.00 0.00 40 1014.9
20260503222557 59 240 2.0 9.0 0.00 0.00 0.00 39 1014.8
20260503222058 59 359 3.0 10.0 0.00 0.00 0.00 40 1014.8
20260503221612 59 236 4.0 11.0 0.00 0.00 0.00 38 1015.0
20260503221059 59 359 3.0 11.0 0.00 0.00 0.00 39 1014.9
20260503220559 59 266 1.0 11.0 0.00 0.00 0.00 40 1014.7
20260503220122 58 239 3.0 11.0 0.00 0.00 0.00 40 1014.9
20260503215558 59 224 4.0 11.0 0.00 0.00 0.00 39 1015.0
20260503215058 59 260 5.0 9.0 0.00 0.00 0.00 40 1015.0
20260503214608 60 232 1.0 8.0 0.00 0.00 0.00 40 1014.8
20260503214058 60 210 2.0 9.0 0.00 0.00 0.00 40 1014.9
20260503213558 59 226 3.0 9.0 0.00 0.00 0.00 41 1014.9
20260503213110 59 305 3.0 10.0 0.00 0.00 0.00 40 1014.8
20260503212558 59 323 3.0 10.0 0.00 0.00 0.00 42 1014.7
20260503212058 59 250 2.0 8.0 0.00 0.00 0.00 40 1014.7
20260503211559 59 35 3.0 12.0 0.00 0.00 0.00 38 1014.8
20260503211058 59 11 4.0 12.0 0.00 0.00 0.00 39 1014.7
20260503210558 59 303 2.0 7.0 0.00 0.00 0.00 40 1014.8
20260503205559 58 259 2.0 10.0 0.00 0.00 0.00 42 1015.1
20260503205059 58 244 2.0 10.0 0.00 0.00 0.00 41 1015.1
20260503204605 58 240 4.0 10.0 0.00 0.00 0.00 41 1015.2
20260503204058 58 337 3.0 14.0 0.00 0.00 0.00 42 1014.9
20260503203558 58 290 3.0 14.0 0.00 0.00 0.00 42 1015.2
20260503203101 58 8 4.0 11.0 0.00 0.00 0.00 41 1015.3
20260503202602 58 233 3.0 7.0 0.00 0.00 0.00 43 1015.3
20260503202059 58 221 3.0 16.0 0.00 0.00 0.00 41 1015.4
20260503201559 58 221 5.0 16.0 0.00 0.00 0.00 40 1015.4
20260503201059 59 193 5.0 14.0 0.00 0.00 0.00 40 1015.3
20260503200558 59 219 3.0 11.0 0.00 0.00 0.00 41 1015.4
20260503195558 59 276 2.0 10.0 0.00 0.00 0.00 41 1015.5
20260503195057 58 265 3.0 10.0 0.00 0.00 0.00 39 1015.6
20260503194604 58 30 2.0 9.0 0.00 0.00 0.00 40 1015.7
20260503194102 57 319 4.0 9.0 0.00 0.00 0.00 41 1015.9
20260503193603 58 246 3.0 8.0 0.00 0.00 0.00 43 1015.7
20260503193100 58 230 3.0 8.0 0.00 0.00 0.00 42 1015.8
20260503192602 57 217 2.0 8.0 0.00 0.00 0.00 44 1015.8
20260503192101 56 264 2.0 8.0 0.00 0.00 0.00 41 1015.9
20260503191602 56 330 3.0 15.0 0.00 0.00 0.00 41 1016.0
20260503191058 57 317 4.0 15.0 0.00 0.00 0.00 40 1016.0
20260503190600 58 251 4.0 9.0 0.00 0.00 0.00 41 1016.1
20260503190101 57 229 4.0 9.0 0.00 0.00 0.00 44 1016.2
20260503185558 57 235 4.0 9.0 0.00 0.00 0.00 43 1016.2
20260503185102 57 274 3.0 9.0 0.00 0.00 0.00 42 1016.3
20260503184606 56 212 3.0 9.0 0.00 0.00 0.00 44 1016.4
20260503184101 55 174 3.0 9.0 0.00 0.00 0.00 44 1016.4
20260503183558 56 254 3.0 9.0 0.00 0.00 0.00 44 1016.5
20260503183058 56 282 4.0 10.0 0.00 0.00 0.00 43 1016.5
20260503182557 56 256 2.0 10.0 0.00 0.00 0.00 46 1016.6
20260503182101 56 240 3.0 12.0 0.00 0.00 0.00 45 1016.7
20260503181604 55 16 2.0 12.0 0.00 0.00 0.00 45 1016.7
20260503181101 56 290 5.0 12.0 0.00 0.00 0.00 43 1016.8
20260503180604 56 303 3.0 10.0 0.00 0.00 0.00 43 1016.8
20260503180118 56 206 4.0 14.0 0.00 0.00 0.00 44 1016.7
20260503175602 56 224 3.0 14.0 0.00 0.00 0.00 45 1016.9
20260503175101 55 168 2.0 9.0 0.00 0.00 0.00 47 1016.8
20260503174601 54 328 4.0 9.0 0.00 0.00 0.00 44 1017.0
20260503174102 54 221 4.0 9.0 0.00 0.00 0.00 44 1017.0
20260503173558 55 316 2.0 12.0 0.00 0.00 0.00 45 1017.1
20260503173112 55 335 4.0 12.0 0.00 0.00 0.00 43 1017.2
20260503172558 55 8 3.0 12.0 0.00 0.00 0.00 44 1017.2
20260503172057 54 311 3.0 12.0 0.00 0.00 0.00 43 1017.3
20260503171600 54 237 4.0 12.0 0.00 0.00 0.00 43 1017.3
20260503171059 54 290 2.0 11.0 0.00 0.00 0.00 43 1017.3
20260503170559 54 295 3.0 11.0 0.00 0.00 0.00 48 1017.4
20260503170112 54 234 2.0 7.0 0.00 0.00 0.00 47 1017.4
20260503160117 51 184 3.0 8.0 0.00 0.00 0.00 46 1018.1
20260503150601 48 42 2.0 13.0 0.00 0.00 0.00 50 1018.3
20260503150103 48 227 3.0 7.0 0.00 0.00 0.00 52 1018.2
20260503131057 42 247 1.0 5.0 0.00 0.00 0.00 72 1018.6
20260503130600 41 223 2.0 5.0 0.00 0.00 0.00 73 1018.7
20260503110600 34 179 0.0 1.0 0.00 0.01 0.00 90 1017.9
20260503110106 33 221 0.0 1.0 0.00 0.01 0.00 90 1017.8
20260503081600 35 0 0.0 0.0 0.00 0.01 0.00 87 1017.1
20260503081102 35 0 0.0 0.0 0.00 0.01 0.00 86 1017.1
20260503080602 35 0 0.0 0.0 0.00 0.01 0.00 86 1017.1
20260503072559 35 0 0.0 0.0 0.00 0.01 0.00 87 1016.8
20260503072101 35 0 0.0 0.0 0.00 0.01 0.00 87 1016.9
20260503071612 35 0 0.0 0.0 0.00 0.01 0.00 87 1016.8
20260503071058 35 0 0.0 0.0 0.00 0.01 0.00 87 1016.8
20260503070559 35 0 0.0 0.0 0.00 0.01 0.00 88 1016.9
20260503060115 34 0 0.0 0.0 0.00 0.01 0.00 90 1016.9
20260503055059 34 0 0.0 0.0 0.00 0.01 0.00 90 1017.1
20260503054621 34 0 0.0 0.0 0.00 0.01 0.00 90 1017.1
20260503054100 34 0 0.0 0.0 0.00 0.01 0.00 90 1017.1
20260503053600 34 0 0.0 0.0 0.00 0.01 0.00 90 1017.1
20260503053100 34 0 0.0 0.0 0.00 0.01 0.00 90 1017.1
20260503052600 33 0 0.0 0.0 0.00 0.01 0.00 89 1017.1
20260503052100 33 0 0.0 0.0 0.00 0.01 0.00 89 1017.2
20260503051602 33 0 0.0 0.0 0.00 0.01 0.00 89 1017.2
20260503051057 33 0 0.0 0.0 0.00 0.01 0.00 89 1017.1
20260503050559 33 0 0.0 0.0 0.00 0.01 0.00 88 1017.2
20260503050100 34 0 0.0 0.0 0.00 0.01 0.00 88 1017.2
20260503045558 34 0 0.0 0.0 0.00 0.01 0.00 88 1017.3